Theta_e
310 308 307 306 306 305 303 304 305 304 304 305 305 303 302 302 302 302 301 301 301 301 302 302 302 304 303 304 305 306 306 306 303 308 315 320 322 325 323 323 326 323 322
306 305 304 302 303 302 303 304 303 304 305 304 303 301 301 301 301 301 300 301 301 301 302 302 302 305 303 305 305 305 306 309 307 307 313 318 319 317 317 317 318 319 316
303 302 302 302 302 302 302 303 304 303 303 302 301 300 300 301 301 301 301 302 303 304 303 302 303 304 303 305 306 307 309 310 310 309 310 318 319 317 313 313 313 314 315
301 301 300 302 302 302 304 303 302 302 301 301 301 301 301 301 302 301 302 305 306 304 304 304 304 305 305 306 307 308 310 310 311 312 313 316 317 315 313 309 308 311 311
300 301 301 304 305 305 303 302 301 301 300 301 301 300 301 301 302 301 304 304 303 304 306 308 308 308 309 309 309 309 311 311 310 312 314 315 312 310 310 310 307 307 308
302 301 304 304 305 306 304 302 301 301 300 301 300 301 300 301 300 302 305 304 303 303 303 305 307 308 309 311 311 311 312 309 308 310 314 315 314 312 310 308 306 304 302
303 304 305 306 305 306 305 303 301 300 301 300 300 301 300 301 300 300 304 304 303 302 303 304 304 305 306 307 308 308 307 307 308 312 311 308 307 308 308 306 305 305 303
304 304 305 305 304 305 305 304 304 305 304 301 301 301 301 301 299 299 301 304 304 303 303 303 304 304 303 304 304 303 304 304 305 308 308 307 308 309 309 308 306 307 308
304 304 304 305 304 304 303 302 303 304 306 305 303 302 301 300 299 298 301 303 303 303 303 304 302 303 299 301 304 304 304 304 305 304 302 301 301 302 307 308 305 305 304
304 304 306 305 305 302 305 303 304 303 304 306 306 303 302 300 298 297 298 303 302 302 303 304 302 299 298 299 308 307 304 305 306 306 307 307 306 306 306 308 308 304 304
304 305 306 306 306 304 305 302 301 300 304 302 306 307 303 300 300 297 297 303 304 303 302 302 302 297 297 297 299 302 303 304 307 308 307 307 308 308 308 309 310 307 303
305 305 305 308 306 306 304 301 300 300 299 299 301 299 302 302 299 298 297 297 300 303 302 304 303 297 295 297 301 298 300 304 306 305 304 304 305 306 308 309 309 309 308
305 306 305 308 306 307 304 302 298 299 297 297 298 297 297 299 300 298 298 298 301 303 303 301 298 298 299 302 300 300 302 305 304 303 303 304 305 306 308 307 308 309 307
305 305 304 307 305 308 303 301 298 297 296 295 296 297 297 297 298 298 300 302 302 303 303 303 301 300 299 302 303 303 303 303 303 302 302 304 305 305 303 304 302 304 303
305 303 304 304 307 305 301 297 299 296 293 296 297 298 295 295 295 293 294 297 298 298 302 302 301 300 300 300 301 301 302 301 300 301 301 301 301 300 301 303 302 300 299
304 301 303 303 302 302 301 297 292 293 292 291 290 293 298 293 292 292 292 293 293 294 299 297 296 296 296 296 297 297 299 299 299 299 299 299 298 299 299 300 299 298 297
303 303 302 301 300 300 300 299 299 293 293 292 291 292 292 291 292 292 292 293 293 296 296 294 294 294 294 295 295 295 295 297 298 297 297 297 297 297 298 297 297 297 296
305 299 300 302 301 299 299 298 299 299 299 299 292 294 293 292 292 292 292 296 297 295 295 293 292 293 293 293 293 293 294 295 295 296 295 296 296 296 296 297 295 295 295
304 301 302 303 300 299 299 298 297 299 300 299 300 297 294 294 293 293 294 296 294 293 293 292 293 292 292 292 292 292 293 293 293 294 293 294 295 295 295 296 294 291 292
306 296 299 301 298 297 297 297 297 298 297 299 298 298 299 297 297 297 297 295 294 293 293 292 293 293 293 292 292 292 291 292 292 292 292 293 294 294 294 295 296 294 294
304 302 291 300 298 297 297 296 298 298 297 298 299 296 286 298 297 296 296 295 294 294 294 293 293 293 293 292 291 290 290 291 291 291 291 292 293 293 294 295 296 295 294
302 301 300 298 299 298 297 298 298 298 298 298 299 296 290 298 298 296 295 295 296 296 295 295 294 293 293 291 291 290 289 289 289 290 290 292 293 293 294 294 294 295 295
302 300 299 299 298 294 297 298 299 299 299 298 300 299 298 297 297 296 295 296 296 296 296 294 293 293 292 292 291 290 289 289 289 289 290 291 292 292 293 293 293 294 295
302 300 299 298 297 297 297 299 300 294 297 300 299 298 298 297 297 296 296 296 296 296 295 294 294 292 291 290 291 290 290 288 288 290 291 292 292 292 293 293 294 295 296
301 300 299 298 296 296 298 299 299 299 299 300 299 298 297 297 296 296 296 296 296 295 294 293 292 291 290 289 289 288 287 285 286 286 293 294 293 294 294 294 295 297 297
300 299 297 296 295 297 299 298 298 299 299 299 298 298 297 296 296 295 296 295 293 293 292 292 291 291 290 288 287 285 285 285 287 285 292 295 294 293 294 296 297 297 298
Wind_Speed
11 12 12 12 11 10 10 11 11 13 14 14 14 14 14 15 14 13 14 15 14 13 11 12 13 11 8 8 8 6 7 7 9 15 9 7 7 5 7 7 8 6 6
12 12 11 12 11 11 11 12 12 13 13 13 13 14 14 14 14 13 14 14 14 14 11 10 11 8 10 10 7 9 8 8 8 11 8 6 4 4 6 7 7 7 8
13 12 11 10 10 11 11 12 12 13 13 13 13 14 14 14 14 13 13 14 13 10 8 9 9 8 9 7 7 8 7 7 7 8 10 4 1 1 5 6 6 8 7
11 10 8 10 10 10 10 10 11 12 13 14 13 13 13 14 13 13 13 11 9 6 7 9 8 8 8 7 6 7 7 7 8 8 9 5 3 3 2 4 4 3 5
9 7 8 8 9 8 8 8 9 10 11 13 13 14 13 12 10 14 11 10 9 9 8 5 6 9 13 11 5 6 7 4 4 7 5 3 3 3 3 3 4 5 3
6 8 7 8 9 8 6 6 7 9 10 13 15 14 14 10 21 21 17 9 11 10 9 8 6 9 6 9 16 16 7 5 6 5 2 3 3 3 3 5 6 3 3
9 7 7 7 9 8 5 4 5 7 6 11 13 13 14 14 22 21 20 11 11 11 11 9 8 8 10 10 14 11 10 10 6 5 1 3 2 1 4 5 4 3 3
7 8 6 7 9 9 11 7 9 5 4 5 8 8 11 11 22 21 19 11 10 12 11 11 11 12 13 11 10 11 9 10 9 7 8 6 6 5 4 3 3 3 4
9 9 9 10 11 10 9 9 11 11 7 5 5 6 8 11 16 18 15 10 10 11 10 10 9 8 10 11 8 9 8 7 8 12 11 11 11 10 7 4 3 2 3
11 11 9 8 9 10 9 7 9 11 9 7 2 4 4 8 13 18 12 5 9 8 9 11 17 12 13 12 7 6 6 4 4 5 5 6 7 5 4 3 1 1 1
9 10 10 6 6 8 7 9 10 11 9 11 7 3 8 9 14 18 15 8 6 4 4 5 5 11 15 13 10 5 2 5 3 2 3 3 4 4 3 4 7 3 4
7 9 9 3 4 4 8 8 10 11 10 11 9 10 8 10 13 18 20 14 8 6 5 4 6 15 12 16 12 16 15 8 6 4 4 4 4 4 4 4 5 6 6
9 8 8 5 7 5 5 5 7 9 9 9 9 9 8 9 10 17 18 18 13 4 4 8 11 14 13 10 15 17 13 9 7 6 5 5 4 4 4 3 3 6 6
9 9 8 5 6 4 4 5 6 7 7 8 8 8 9 9 10 9 9 10 12 10 10 9 10 9 8 9 9 9 9 9 8 7 6 5 5 4 5 5 3 0 3
7 9 6 5 4 3 4 4 4 3 3 6 7 8 8 8 9 9 8 8 8 8 8 8 9 9 9 10 9 9 8 9 9 8 7 7 6 6 5 4 5 4 3
6 7 7 5 6 4 2 4 4 1 5 6 10 6 6 7 13 14 13 14 19 16 9 9 9 9 9 9 9 8 8 9 8 8 7 7 7 6 4 4 4 3 3
7 7 8 5 6 5 5 5 3 5 10 7 8 3 6 5 12 14 15 6 13 10 8 8 8 8 8 8 8 8 8 8 8 7 7 6 6 6 5 3 4 3 3
5 9 7 6 5 6 6 6 5 6 5 8 5 2 3 5 8 12 15 10 9 10 8 8 8 8 8 8 8 8 8 8 8 7 7 7 6 6 6 3 3 3 3
3 4 6 5 6 4 4 5 7 8 5 6 6 3 2 10 8 8 11 8 8 8 7 7 7 7 7 7 7 7 8 7 6 6 6 6 6 6 6 5 2 4 3
2 3 6 5 5 7 6 5 5 5 7 7 7 7 7 7 7 8 8 8 7 7 7 8 8 6 6 6 7 7 7 6 7 6 6 6 5 5 5 6 4 3 3
4 5 6 6 5 5 5 7 7 6 6 6 7 5 4 7 7 7 7 7 7 6 5 6 7 6 7 6 6 6 6 6 6 6 5 5 5 5 4 5 2 2 3
5 4 4 7 5 6 6 6 6 8 7 7 5 7 10 7 7 9 8 7 6 6 4 5 5 7 6 6 6 6 6 6 6 6 5 5 5 4 4 4 2 3 2
6 6 7 5 7 6 7 7 7 8 8 8 9 10 8 7 8 8 8 8 8 4 4 5 7 6 5 6 5 5 6 5 5 5 5 5 4 4 3 4 3 3 3
6 6 7 7 6 7 7 8 8 8 8 9 10 9 8 7 8 9 9 7 8 6 5 6 7 10 7 7 5 5 5 5 5 5 6 5 3 3 3 2 2 3 1
7 6 7 7 7 6 7 8 8 8 9 10 10 8 8 9 9 9 9 8 8 7 8 7 7 9 9 10 9 10 9 8 6 5 4 2 3 4 3 2 2 2 4
7 7 7 7 7 7 8 8 8 9 10 9 8 8 8 9 8 9 9 9 8 8 10 8 9 12 11 9 10 11 9 7 5 5 3 2 2 3 3 3 4 3 3
Wind_Direction
3 0 359 352 345 341 332 331 331 318 310 312 318 320 314 310 307 300 290 284 275 265 251 251 254 250 251 257 258 253 255 248 249 286 293 318 336 329 47 28 70 85 83
359 357 353 347 348 341 335 331 316 320 320 330 331 320 316 308 305 301 297 291 283 272 259 250 255 244 243 247 250 255 255 257 270 283 298 319 47 340 36 45 63 67 74
354 353 356 353 345 341 330 320 340 337 335 328 328 320 316 316 311 305 301 297 294 295 258 257 255 242 242 242 242 253 256 259 263 268 277 261 143 216 70 57 61 80 77
356 1 353 346 336 322 338 342 342 338 338 336 329 325 324 321 318 320 313 322 312 291 268 262 253 243 243 247 253 260 265 259 269 270 271 258 113 90 98 129 105 86 92
353 350 350 328 319 325 335 336 338 340 342 341 339 338 336 333 337 338 340 341 343 349 345 295 251 242 248 246 248 260 280 280 306 294 255 187 159 158 189 163 125 119 81
322 348 327 325 324 317 300 307 323 338 349 348 348 347 345 347 345 351 358 359 3 1 4 2 356 4 339 261 242 247 282 283 279 283 305 225 127 106 124 140 140 130 125
309 336 348 325 329 340 351 302 321 314 338 353 347 348 353 358 355 359 2 7 14 14 15 18 21 17 17 40 64 63 39 16 12 299 248 29 80 115 128 140 123 128 145
344 333 348 344 330 357 357 354 333 300 330 328 322 337 347 355 1 360 356 8 17 15 21 16 32 32 33 45 60 60 50 39 22 44 61 55 56 53 67 75 102 88 92
340 354 360 358 358 2 345 3 333 328 317 261 309 326 356 6 1 354 355 3 9 7 5 18 16 25 12 18 46 58 55 55 49 63 64 63 67 68 74 81 48 74 67
349 350 339 5 2 341 342 353 349 340 334 326 320 355 13 2 4 1 351 347 1 4 8 8 11 15 19 19 19 22 34 22 40 52 55 56 58 50 37 7 230 252 307
350 329 329 27 350 322 3 18 354 344 342 333 2 113 48 21 6 0 352 338 345 342 358 352 345 355 23 24 22 10 337 304 237 96 51 52 59 49 58 59 37 45 72
320 310 324 339 319 336 34 24 4 357 3 348 18 6 22 21 12 357 349 349 336 359 11 341 356 352 356 29 19 15 17 17 42 38 51 28 41 38 43 52 51 64 65
324 334 341 15 349 46 38 41 13 12 14 3 359 14 4 10 9 354 348 344 356 353 348 1 22 22 21 17 14 18 19 19 16 31 21 16 35 21 59 36 71 89 73
343 336 343 12 345 48 29 25 42 15 19 18 4 18 7 11 3 352 352 359 6 31 29 24 15 10 21 13 22 30 23 19 12 19 19 7 11 18 38 16 25 343 102
5 335 349 346 355 46 67 18 67 48 11 20 20 13 16 9 354 345 10 12 5 6 19 22 19 17 17 14 15 17 22 16 11 9 12 10 18 20 20 17 17 7 60
357 340 325 351 344 32 37 148 35 107 266 304 310 35 31 20 356 3 5 16 15 14 28 25 19 14 12 8 7 7 11 13 10 3 8 11 5 9 4 24 19 19 44
353 336 324 1 3 7 359 353 64 221 257 258 266 356 358 350 9 7 357 19 41 18 34 21 16 10 5 4 3 1 1 5 2 2 5 5 2 355 356 25 26 21 24
5 347 330 334 12 10 8 1 7 7 50 54 223 265 325 0 10 10 4 14 23 26 19 18 10 4 3 359 358 354 352 1 355 4 3 358 358 349 346 16 39 28 18
11 2 324 344 1 10 18 28 9 359 15 73 49 311 309 10 9 39 28 28 20 18 12 7 1 360 356 352 348 348 347 350 351 3 354 349 351 346 346 356 69 51 42
7 324 350 342 23 353 15 21 30 24 9 17 53 29 25 8 12 20 28 23 15 11 3 1 355 352 346 347 342 342 342 346 354 358 347 340 342 345 348 347 11 45 27
11 51 352 327 17 18 22 22 3 19 26 20 78 57 5 24 19 15 16 12 2 350 346 335 336 353 345 347 344 342 339 345 348 345 336 331 341 344 337 339 17 33 10
33 15 11 1 21 14 7 32 20 5 24 21 39 73 43 22 15 10 6 1 348 341 332 335 359 338 352 338 339 335 332 335 342 335 327 328 332 327 349 334 13 0 18
26 23 4 40 352 35 10 14 28 22 18 21 39 39 22 18 7 11 354 351 337 339 6 31 336 343 356 338 340 333 323 332 326 315 320 318 317 355 340 332 2 16 23
32 26 23 15 19 14 19 20 15 30 21 33 42 34 17 4 12 1 349 339 333 355 40 358 355 358 358 343 340 334 323 331 312 306 321 308 342 339 318 4 13 7 349
24 26 24 18 16 16 13 26 22 21 33 40 35 21 11 14 7 353 334 329 7 22 1 3 357 350 351 343 341 337 328 319 314 300 298 340 338 326 355 8 3 358 34
47 28 40 21 4 10 32 28 25 17 40 27 31 22 17 6 354 336 336 26 9 4 9 357 351 347 351 346 339 329 326 326 322 312 306 329 2 7 3 22 44 24 5